Location: Newark
(15.4608°S, 41.1635°W)
Time: 22:35:25
(UTC+00:00)

Transit 4A - Pass Details

Date: 11 March 2021
Orbit: 869 x 975 km, 66.8° (Epoch: 16 April)

Event Time Altitude Azimuth Distance (km) Brightness Sun altitude
Rises 23:23:05 0° 298° (WNW) 3,444 11.5 -34.4°
Reaches altitude 10° 23:26:49 10° 274° (W) 2,514 10.9 -35.3°
Maximum altitude 23:29:48 14° 242° (WSW) 2,230 10.5 -36.0°
Drops below altitude 10° 23:32:50 10° 211° (SSW) 2,536 10.6 -36.7°
Sets 23:36:39 0° 187° (S) 3,496 11.2 -37.6°
